Temp
51 51 50 50 49 49 49 48 48 47 47 47 46 45 44 44 44 43 43 43 43 42 42 42 42 42 42 43 43 44 43 42 42 41 40 41 41 39 38 39 39 40
50 50 50 49 48 48 48 48 47 47 46 46 45 44 44 43 43 42 42 42 42 41 41 41 41 41 41 41 41 41 41 41 40 41 39 39 40 40 39 39 39 39
49 48 48 48 47 46 46 47 47 46 45 44 44 44 42 42 41 42 41 41 41 41 41 41 40 40 39 39 39 41 40 39 38 39 39 39 39 38 38 39 39 38
48 48 47 46 46 45 46 45 44 44 44 43 43 42 41 40 41 40 40 40 40 40 40 40 39 39 39 39 39 41 40 40 39 38 38 40 40 39 38 38 37 37
46 46 47 46 46 46 45 44 44 44 43 42 41 42 41 41 41 41 41 40 41 40 40 40 40 39 39 39 39 39 39 40 39 37 37 37 39 38 37 37 36 35
45 46 45 45 45 45 44 43 43 42 42 42 42 42 41 42 41 40 40 40 40 40 39 39 39 39 38 38 38 38 38 37 37 36 36 36 37 37 36 36 35 35
43 43 43 44 43 44 43 42 42 42 42 42 42 41 41 41 40 39 39 39 39 38 38 37 37 37 37 37 37 37 37 36 35 35 35 35 36 35 36 36 35 34
43 43 43 43 42 42 42 42 42 42 42 42 40 40 40 39 39 38 38 38 37 37 37 37 36 36 36 36 36 35 35 35 34 34 34 34 34 34 35 35 34 33
43 42 42 42 42 42 42 41 41 41 42 40 40 39 39 38 38 37 37 37 37 37 36 36 35 35 36 35 34 34 33 34 34 34 33 32 32 33 33 33 33 32
43 43 42 43 42 43 41 41 40 40 40 39 39 39 37 37 37 36 36 36 36 36 36 35 35 34 34 34 34 33 33 32 33 33 32 32 32 32 32 32 31 31
43 43 42 43 43 42 41 40 40 39 39 38 38 37 37 37 36 36 35 36 34 34 34 34 34 33 33 33 33 33 32 32 32 32 32 32 32 31 31 31 30 30
42 42 42 42 42 41 40 40 39 38 38 37 37 36 36 36 35 35 35 34 34 33 33 33 33 32 32 32 32 32 32 31 31 31 31 31 31 31 31 31 30 30
42 42 43 42 41 40 40 39 38 37 37 36 36 35 35 34 34 33 34 33 33 32 32 31 31 31 31 31 31 31 31 30 30 30 30 30 30 30 30 30 30 30
43 43 43 42 41 39 38 37 36 36 35 35 34 33 33 33 32 32 32 32 31 31 31 30 30 30 31 31 30 30 29 29 29 29 28 29 29 29 30 30 30 29
43 43 42 40 38 37 36 35 34 34 33 33 32 32 32 32 31 30 30 30 30 29 29 29 29 29 30 29 27 27 28 27 27 27 27 27 27 28 28 29 29 29
42 40 39 37 36 34 34 34 33 32 32 31 30 30 30 30 29 29 29 29 28 28 28 28 28 29 28 25 25 25 25 25 25 26 26 25 25 26 27 28 28 29
40 38 37 34 34 34 31 31 31 30 29 29 28 28 27 26 27 27 27 28 27 27 27 28 28 28 26 25 25 25 25 24 24 24 25 24 25 25 25 26 27 28
38 36 35 34 33 30 29 29 28 27 26 25 25 24 25 25 25 26 27 27 26 26 26 26 27 27 27 25 25 25 25 24 23 23 23 24 24 24 25 25 26 26
38 35 33 31 30 29 28 26 25 24 24 23 23 24 24 23 24 25 24 25 25 24 24 25 25 26 26 25 24 24 24 24 23 23 22 23 24 24 24 25 25 24
36 33 32 30 29 27 26 24 23 23 23 23 23 22 22 22 23 22 22 23 23 23 23 24 24 25 25 24 24 24 23 24 23 22 22 23 23 23 24 23 23 23
35 33 32 30 27 25 24 23 23 23 23 22 21 21 21 20 21 19 20 20 19 20 20 20 22 23 24 23 23 23 23 23 22 22 22 22 23 23 23 23 23 23
34 32 31 29 27 24 23 23 23 22 20 22 21 22 22 21 21 20 18 17 17 16 16 16 19 22 23 23 22 22 23 21 21 20 20 20 20 22 22 23 23 23
35 33 31 28 25 23 22 22 22 21 21 22 19 21 20 19 18 17 17 16 15 14 14 14 16 20 21 21 21 21 21 20 19 19 19 19 20 21 22 22 22 23
35 32 30 28 25 23 22 23 23 22 20 21 19 19 19 18 18 16 16 15 14 13 13 12 13 17 19 20 20 21 20 19 19 18 18 18 19 21 21 22 22 23
34 32 31 28 25 24 23 22 21 21 20 19 19 19 18 18 17 15 14 13 12 11 13 12 11 13 17 19 19 20 20 19 18 17 17 18 18 19 21 21 22 23
33 30 29 27 25 24 23 22 21 19 17 16 16 18 17 17 15 14 11 12 12 11 9 11 11 12 14 18 18 19 20 19 19 17 16 17 18 18 18 20 21 22
MSLP
1026.53 1026.75 1027.01 1027.31 1027.67 1027.97 1028.19 1028.39 1028.57 1028.69 1028.83 1029.05 1029.31 1029.69 1030.01 1030.35 1030.55 1030.67 1030.83 1030.97 1031.07 1031.15 1031.23 1031.27 1031.29 1031.31 1031.25 1031.19 1031.19 1030.97 1030.97 1031.13 1031.15 1031.19 1031.19 1031.09 1030.97 1031.05 1031.07 1031.01 1030.93 1030.77
1026.81 1027.05 1027.31 1027.63 1027.97 1028.27 1028.47 1028.59 1028.75 1028.89 1029.13 1029.35 1029.61 1029.93 1030.29 1030.55 1030.73 1030.89 1031.03 1031.11 1031.23 1031.35 1031.43 1031.49 1031.55 1031.61 1031.59 1031.49 1031.49 1031.31 1031.27 1031.33 1031.39 1031.33 1031.39 1031.27 1031.13 1031.05 1031.03 1031.05 1030.95 1030.91
1027.15 1027.37 1027.61 1027.87 1028.23 1028.57 1028.75 1028.91 1029.01 1029.17 1029.37 1029.65 1029.85 1030.11 1030.51 1030.75 1030.91 1031.05 1031.17 1031.27 1031.31 1031.45 1031.53 1031.61 1031.69 1031.73 1031.79 1031.75 1031.65 1031.41 1031.51 1031.53 1031.51 1031.47 1031.39 1031.17 1031.17 1031.23 1031.13 1031.03 1030.95 1030.99
1027.37 1027.61 1027.91 1028.25 1028.55 1028.81 1028.99 1029.15 1029.37 1029.53 1029.69 1029.83 1030.11 1030.45 1030.71 1030.89 1031.01 1031.17 1031.33 1031.35 1031.43 1031.51 1031.63 1031.71 1031.79 1031.83 1031.85 1031.79 1031.69 1031.45 1031.51 1031.45 1031.55 1031.61 1031.43 1031.17 1031.11 1031.17 1031.21 1031.13 1031.09 1031.05
1027.67 1027.95 1028.21 1028.51 1028.81 1029.01 1029.17 1029.33 1029.47 1029.57 1029.81 1030.13 1030.39 1030.53 1030.67 1030.81 1030.91 1031.07 1031.19 1031.31 1031.37 1031.51 1031.59 1031.69 1031.79 1031.87 1031.89 1031.83 1031.71 1031.59 1031.55 1031.43 1031.55 1031.71 1031.59 1031.43 1031.19 1031.19 1031.27 1031.27 1031.25 1031.19
1027.95 1028.17 1028.49 1028.81 1029.03 1029.17 1029.31 1029.49 1029.67 1029.85 1030.03 1030.19 1030.31 1030.45 1030.63 1030.71 1030.87 1031.05 1031.19 1031.31 1031.43 1031.57 1031.67 1031.77 1031.87 1031.91 1031.93 1031.95 1031.79 1031.73 1031.75 1031.73 1031.79 1031.83 1031.71 1031.53 1031.35 1031.31 1031.35 1031.37 1031.29 1031.23
1028.17 1028.45 1028.79 1029.03 1029.21 1029.33 1029.51 1029.71 1029.85 1029.99 1030.11 1030.21 1030.35 1030.49 1030.63 1030.79 1030.99 1031.17 1031.31 1031.47 1031.61 1031.73 1031.87 1031.95 1032.05 1032.09 1032.07 1032.03 1031.93 1031.93 1031.89 1031.93 1031.97 1031.87 1031.79 1031.65 1031.53 1031.47 1031.33 1031.33 1031.33 1031.31
1028.29 1028.61 1028.91 1029.11 1029.29 1029.47 1029.67 1029.87 1029.99 1030.07 1030.13 1030.25 1030.47 1030.65 1030.75 1030.91 1031.07 1031.31 1031.47 1031.65 1031.77 1031.91 1032.03 1032.07 1032.17 1032.19 1032.15 1032.17 1032.11 1032.09 1032.01 1031.97 1032.01 1031.93 1031.85 1031.79 1031.65 1031.61 1031.47 1031.41 1031.43 1031.41
1028.39 1028.73 1028.97 1029.13 1029.31 1029.51 1029.73 1029.89 1030.03 1030.13 1030.19 1030.31 1030.51 1030.71 1030.83 1030.97 1031.21 1031.41 1031.67 1031.83 1031.89 1031.97 1032.05 1032.15 1032.21 1032.23 1032.21 1032.23 1032.23 1032.19 1032.15 1032.05 1031.97 1031.95 1031.95 1031.89 1031.83 1031.73 1031.65 1031.59 1031.59 1031.49
1028.37 1028.61 1028.83 1028.99 1029.19 1029.39 1029.71 1029.89 1030.07 1030.23 1030.35 1030.47 1030.57 1030.71 1030.93 1031.19 1031.43 1031.67 1031.79 1031.89 1031.97 1032.03 1032.07 1032.17 1032.23 1032.25 1032.27 1032.19 1032.21 1032.23 1032.19 1032.15 1032.07 1032.05 1032.01 1031.95 1031.91 1031.83 1031.77 1031.79 1031.75 1031.67
1028.23 1028.47 1028.65 1028.85 1029.05 1029.33 1029.67 1029.91 1030.13 1030.33 1030.49 1030.59 1030.69 1030.87 1031.07 1031.31 1031.53 1031.77 1031.93 1031.89 1032.05 1032.11 1032.19 1032.17 1032.23 1032.27 1032.27 1032.25 1032.21 1032.21 1032.25 1032.21 1032.19 1032.13 1032.07 1031.99 1031.95 1031.91 1031.87 1031.85 1031.79 1031.69
1028.05 1028.27 1028.49 1028.67 1028.95 1029.29 1029.65 1029.87 1030.11 1030.35 1030.55 1030.71 1030.85 1031.05 1031.23 1031.41 1031.63 1031.73 1031.91 1032.01 1032.05 1032.21 1032.21 1032.23 1032.23 1032.25 1032.27 1032.27 1032.27 1032.27 1032.27 1032.25 1032.21 1032.17 1032.09 1032.05 1031.97 1031.89 1031.85 1031.81 1031.79 1031.71
1027.83 1028.03 1028.23 1028.51 1028.87 1029.21 1029.55 1029.85 1030.09 1030.33 1030.57 1030.85 1030.99 1031.17 1031.39 1031.53 1031.65 1031.87 1031.95 1032.13 1032.17 1032.21 1032.23 1032.23 1032.27 1032.23 1032.23 1032.25 1032.27 1032.29 1032.31 1032.29 1032.21 1032.15 1032.11 1032.05 1031.95 1031.89 1031.83 1031.73 1031.63 1031.59
1027.57 1027.77 1028.05 1028.39 1028.73 1029.21 1029.57 1029.83 1030.11 1030.39 1030.69 1030.97 1031.17 1031.35 1031.49 1031.55 1031.71 1031.91 1032.07 1032.21 1032.27 1032.23 1032.19 1032.23 1032.21 1032.19 1032.17 1032.21 1032.27 1032.33 1032.35 1032.29 1032.27 1032.27 1032.21 1032.09 1031.99 1031.91 1031.79 1031.67 1031.57 1031.49
1027.27 1027.61 1027.99 1028.43 1028.87 1029.23 1029.57 1029.85 1030.09 1030.41 1030.77 1031.05 1031.25 1031.41 1031.51 1031.63 1031.85 1032.07 1032.23 1032.21 1032.25 1032.19 1032.19 1032.15 1032.19 1032.17 1032.19 1032.31 1032.51 1032.57 1032.57 1032.55 1032.49 1032.43 1032.35 1032.27 1032.11 1031.93 1031.75 1031.59 1031.45 1031.27
1027.09 1027.61 1028.07 1028.53 1028.89 1029.27 1029.55 1029.79 1030.05 1030.45 1030.81 1031.09 1031.31 1031.43 1031.57 1031.73 1032.01 1032.15 1032.23 1032.15 1032.09 1032.05 1032.05 1032.13 1032.13 1032.11 1032.27 1032.61 1032.77 1032.83 1032.85 1032.77 1032.65 1032.55 1032.47 1032.35 1032.17 1031.93 1031.65 1031.41 1031.25 1031.11
1027.07 1027.61 1028.07 1028.51 1028.81 1029.19 1029.51 1029.73 1030.03 1030.41 1030.75 1031.05 1031.29 1031.47 1031.67 1031.93 1032.11 1032.21 1032.15 1032.03 1031.99 1031.95 1031.99 1031.97 1032.01 1032.05 1032.27 1032.47 1032.57 1032.65 1032.73 1032.75 1032.71 1032.59 1032.49 1032.37 1032.19 1031.97 1031.67 1031.33 1031.07 1030.91
1026.89 1027.47 1027.95 1028.33 1028.69 1029.11 1029.49 1029.71 1030.01 1030.45 1030.77 1031.09 1031.31 1031.59 1031.71 1031.91 1032.03 1032.01 1031.93 1031.91 1031.91 1031.93 1031.99 1031.97 1031.93 1031.95 1032.15 1032.31 1032.45 1032.53 1032.59 1032.61 1032.59 1032.53 1032.41 1032.23 1032.03 1031.85 1031.59 1031.29 1031.03 1030.89
1026.61 1027.17 1027.67 1028.09 1028.53 1028.97 1029.41 1029.69 1030.09 1030.45 1030.75 1031.01 1031.25 1031.39 1031.63 1031.89 1031.91 1031.85 1031.85 1031.77 1031.87 1031.93 1031.95 1031.89 1031.93 1031.89 1032.05 1032.19 1032.33 1032.39 1032.43 1032.41 1032.39 1032.31 1032.23 1032.09 1031.93 1031.77 1031.51 1031.25 1031.11 1030.97
1026.29 1026.87 1027.35 1027.83 1028.37 1028.93 1029.39 1029.73 1030.05 1030.25 1030.51 1030.77 1031.09 1031.39 1031.61 1031.67 1031.65 1031.75 1031.71 1031.71 1031.81 1031.87 1031.93 1031.91 1031.87 1031.85 1031.97 1032.09 1032.19 1032.25 1032.25 1032.23 1032.19 1032.13 1032.01 1031.91 1031.83 1031.65 1031.41 1031.27 1031.15 1031.03
1026.03 1026.55 1027.01 1027.55 1028.17 1028.75 1029.21 1029.51 1029.77 1029.99 1030.33 1030.57 1030.91 1031.25 1031.43 1031.51 1031.47 1031.63 1031.63 1031.73 1031.89 1031.99 1032.07 1032.05 1031.89 1031.87 1031.91 1031.97 1032.07 1032.11 1032.09 1032.03 1032.01 1031.91 1031.81 1031.71 1031.59 1031.51 1031.39 1031.25 1031.15 1031.03
1025.57 1026.13 1026.65 1027.23 1027.91 1028.51 1028.91 1029.17 1029.43 1029.65 1030.07 1030.33 1030.67 1030.89 1031.09 1031.21 1031.19 1031.25 1031.55 1031.87 1032.03 1032.21 1032.31 1032.25 1031.97 1031.81 1031.81 1031.87 1031.95 1032.01 1031.97 1031.95 1031.93 1031.87 1031.79 1031.69 1031.57 1031.45 1031.35 1031.17 1031.05 1030.93
1025.07 1025.57 1026.11 1026.75 1027.47 1028.11 1028.51 1028.75 1029.05 1029.47 1029.89 1030.09 1030.53 1030.71 1030.99 1031.07 1031.11 1031.17 1031.39 1031.77 1032.05 1032.25 1032.37 1032.23 1032.01 1031.81 1031.79 1031.83 1031.91 1031.93 1031.91 1031.97 1031.97 1031.89 1031.77 1031.63 1031.45 1031.27 1031.17 1031.09 1030.99 1030.81
1024.49 1025.07 1025.69 1026.39 1027.09 1027.49 1027.81 1028.23 1028.65 1029.11 1029.55 1029.83 1030.19 1030.45 1030.63 1030.77 1030.87 1031.13 1031.37 1031.59 1031.91 1032.15 1032.19 1032.27 1032.03 1031.85 1031.79 1031.77 1031.81 1031.81 1031.85 1031.93 1031.91 1031.83 1031.69 1031.55 1031.39 1031.25 1031.13 1030.95 1030.75 1030.59
1024.09 1024.67 1025.25 1025.87 1026.43 1026.81 1027.37 1027.89 1028.21 1028.63 1029.17 1029.77 1030.01 1030.21 1030.43 1030.59 1030.73 1030.95 1031.37 1031.57 1031.83 1032.09 1032.13 1032.15 1032.13 1031.91 1031.69 1031.57 1031.57 1031.63 1031.69 1031.79 1031.81 1031.75 1031.65 1031.43 1031.25 1031.09 1030.89 1030.71 1030.47 1030.25
1023.85 1024.43 1024.87 1025.39 1025.87 1026.51 1027.21 1027.61 1028.07 1028.63 1029.15 1029.63 1030.03 1030.15 1030.35 1030.41 1030.77 1030.89 1031.29 1031.45 1031.61 1031.93 1032.13 1032.03 1031.99 1031.77 1031.59 1031.35 1031.31 1031.31 1031.27 1031.35 1031.39 1031.43 1031.31 1031.13 1030.99 1030.85 1030.69 1030.41 1030.15 1029.85
Wind_Speed
8 8 8 7 7 6 7 7 7 8 7 7 6 6 6 5 5 5 5 5 5 5 5 5 5 5 4 4 5 4 4 4 4 4 4 4 3 3 3 4 4 4
8 8 7 7 7 6 7 7 8 7 8 7 6 6 5 5 5 4 4 4 4 4 4 4 4 4 4 4 4 3 3 3 3 2 3 3 3 3 3 4 3 4
8 8 8 8 8 8 8 7 7 7 7 7 7 6 5 4 4 4 3 3 3 3 3 3 3 3 3 3 3 2 3 2 3 4 3 2 2 2 4 3 3 3
8 7 7 8 8 8 7 7 7 7 6 6 6 5 4 3 4 4 3 3 3 3 3 3 3 3 3 3 3 2 2 2 2 3 4 3 2 2 3 3 3 4
8 7 7 7 7 7 6 7 7 6 7 6 6 5 5 4 4 4 3 3 3 3 3 3 3 3 3 3 3 3 3 2 3 4 4 4 3 3 3 3 4 4
7 7 7 7 6 6 6 6 7 7 6 6 6 5 5 5 5 4 4 4 3 4 3 3 3 4 3 4 3 3 3 3 3 4 4 4 4 4 3 3 4 5
8 7 7 6 6 6 6 6 6 6 5 5 5 5 5 5 5 5 4 4 4 3 3 3 3 3 3 3 3 3 3 3 4 4 4 4 4 5 4 4 4 5
8 7 6 6 7 6 6 6 5 5 5 6 6 5 5 5 5 4 4 3 2 2 2 2 2 2 2 2 3 3 3 2 3 4 5 5 5 5 5 4 4 5
8 7 7 7 7 6 6 6 5 5 5 5 5 5 5 5 4 4 3 2 1 1 1 1 1 1 2 2 2 3 3 4 4 4 5 5 5 5 5 5 5 5
8 8 8 7 7 6 7 6 5 5 4 5 5 5 5 4 4 2 1 1 1 1 1 0 1 1 2 2 2 3 3 4 4 4 4 5 5 5 5 5 5 6
9 8 8 8 7 7 7 6 6 5 4 5 5 5 4 4 3 2 1 2 1 1 0 0 1 1 2 2 3 3 3 4 4 4 4 5 5 5 5 5 5 6
9 9 9 9 8 8 8 6 6 5 5 4 4 4 4 3 3 2 2 1 1 1 1 0 0 1 2 2 3 3 3 4 4 4 5 5 5 5 5 5 5 6
9 9 9 9 8 8 7 6 6 6 5 5 4 4 3 3 3 2 1 2 2 1 1 1 1 2 2 2 3 3 4 4 5 5 5 5 5 5 6 6 6 6
9 9 9 8 8 7 7 6 6 6 5 4 4 4 4 3 3 2 2 2 2 2 1 0 1 2 2 2 3 3 4 4 5 5 5 6 6 6 6 6 6 6
9 8 8 7 8 7 7 7 7 6 5 5 4 4 3 3 2 2 3 3 3 2 2 1 1 2 1 1 2 3 4 5 5 5 5 6 6 6 6 6 6 6
9 7 7 7 7 7 7 7 7 6 6 5 5 4 4 3 3 3 4 4 3 2 2 1 2 2 2 2 3 3 4 5 5 6 6 6 7 7 7 7 7 7
8 8 7 8 7 7 5 7 7 6 5 4 4 5 4 4 4 5 5 4 3 2 2 2 3 3 4 5 5 7 6 5 5 6 6 7 7 7 7 7 7 7
8 8 8 8 6 5 5 5 5 5 5 4 4 4 4 4 5 6 5 4 3 3 3 3 4 4 6 6 7 7 7 6 5 6 6 6 7 8 7 7 7 7
9 8 7 6 5 5 5 5 5 5 5 5 5 4 4 4 6 6 5 4 4 4 4 4 4 6 7 7 7 8 8 7 6 6 6 7 8 8 9 8 7 7
8 8 8 6 5 5 5 5 5 5 5 4 4 4 4 5 5 5 4 4 4 4 4 4 5 6 7 8 7 8 8 7 6 7 7 8 9 9 8 7 7 7
9 6 7 8 7 6 5 5 5 5 5 5 5 5 6 6 5 5 4 3 3 3 4 4 5 7 8 8 8 8 8 7 6 6 7 7 8 8 8 8 8 8
9 10 10 7 7 6 6 6 6 6 6 5 5 4 4 4 3 4 4 4 3 3 3 5 6 8 8 8 8 8 8 6 5 6 6 7 7 8 8 8 7 8
9 12 12 12 9 9 10 8 7 7 5 5 4 5 5 5 4 3 3 4 4 4 4 4 4 6 7 7 7 8 7 5 5 5 6 7 8 8 8 8 8 8
13 13 13 12 11 14 13 8 4 3 5 5 5 5 5 5 4 3 3 3 4 5 5 4 5 6 7 7 8 8 7 5 5 5 7 7 7 8 7 8 9 13
12 12 12 12 13 13 12 11 9 7 4 4 4 3 3 3 3 3 3 3 3 4 6 6 5 7 8 8 8 7 6 5 5 5 6 6 6 7 7 7 8 9
11 12 12 12 13 11 9 9 4 4 5 5 3 3 3 3 3 2 3 3 3 4 4 5 6 5 5 8 8 8 9 6 5 5 6 7 6 6 7 7 8 9
Wind_Direction
108 109 110 108 104 106 108 107 102 99 95 93 93 90 84 80 71 66 64 59 51 50 43 38 31 25 17 26 14 20 35 31 25 20 359 9 360 9 353 352 341 347
107 106 106 105 106 105 103 101 101 99 99 96 98 98 92 88 78 70 68 70 66 58 52 45 37 32 19 19 9 17 24 19 16 7 333 349 347 341 342 330 321 335
111 114 117 117 115 111 106 103 104 104 102 101 100 97 98 92 85 80 71 75 76 71 54 47 37 33 24 11 347 14 21 6 15 352 332 326 339 336 338 324 331 329
118 116 112 111 113 115 113 112 109 109 116 113 101 103 111 117 119 117 107 86 84 77 67 51 43 32 14 4 344 8 360 3 29 343 332 334 331 345 333 333 324 329
119 115 113 112 115 118 119 123 122 118 112 115 126 133 133 130 122 116 107 99 86 69 60 52 41 37 13 5 352 11 351 6 22 356 338 330 329 348 337 332 330 323
115 116 116 120 124 128 124 119 117 120 125 127 123 120 118 114 103 93 82 74 62 58 45 41 32 24 14 1 350 10 351 1 350 340 333 324 333 339 331 323 322 325
125 125 124 124 126 122 119 120 123 125 125 122 119 109 109 102 93 83 74 67 60 51 45 32 27 15 3 353 350 349 343 349 331 333 330 325 328 325 325 331 327 319
132 131 132 131 129 124 122 130 133 127 126 122 110 104 99 93 88 80 73 62 67 61 46 46 19 8 347 352 341 332 332 333 320 323 320 320 323 320 327 326 322 315
139 142 141 139 135 138 140 136 129 124 123 118 111 108 96 86 81 83 78 85 102 75 78 46 15 356 339 334 324 321 318 317 316 314 315 314 316 316 318 317 314 312
151 149 147 148 149 147 144 135 128 119 114 109 106 103 100 92 90 94 127 128 143 139 90 69 10 347 316 314 309 312 312 309 310 311 305 303 303 306 309 310 304 302
157 157 159 160 156 148 143 135 130 122 113 109 107 105 102 117 125 131 176 170 147 139 151 119 357 317 305 304 308 306 303 303 301 303 299 299 298 294 296 294 294 293
163 165 167 165 156 148 146 141 131 126 121 110 114 116 122 128 139 165 158 197 161 161 198 237 281 306 300 300 301 304 301 297 294 294 296 293 290 287 285 288 282 286
172 173 171 163 157 151 147 141 135 127 124 124 123 132 143 155 153 156 193 171 211 168 207 219 282 291 291 296 299 300 296 291 290 292 289 288 285 285 283 276 279 281
176 175 168 161 153 147 146 140 132 130 131 133 136 155 155 159 162 175 195 189 202 195 182 220 273 276 284 293 300 303 299 297 302 294 289 286 284 283 280 276 274 275
174 172 160 146 144 146 146 145 140 137 142 144 155 159 152 149 156 182 211 205 192 194 197 227 253 257 257 307 324 317 312 304 295 290 289 288 286 281 275 273 273 273
170 154 149 142 148 150 153 149 142 144 150 155 160 163 156 155 169 199 213 212 194 191 199 212 235 239 207 234 262 277 294 289 288 283 282 282 285 284 280 274 270 271
159 153 149 155 153 155 155 149 148 151 157 159 162 159 163 164 186 201 208 203 193 189 212 229 229 230 225 244 259 271 277 277 277 280 278 279 278 279 280 281 279 276
156 151 155 159 153 156 152 152 143 149 156 161 163 165 175 174 197 202 200 194 191 204 220 232 242 237 240 251 262 269 267 270 274 274 275 273 275 277 278 278 282 287
162 158 161 157 158 148 151 140 142 153 161 164 173 175 172 184 202 193 197 192 195 210 225 239 245 247 243 252 261 265 269 272 269 268 271 271 272 272 275 279 284 286
162 164 167 160 144 147 154 157 161 173 168 166 161 167 188 195 195 190 191 195 201 210 227 242 252 247 247 254 261 265 271 271 267 269 270 271 270 270 275 279 281 285
170 157 164 149 147 152 160 168 169 170 164 170 168 183 191 196 190 187 193 191 199 211 232 248 252 251 253 258 262 270 273 274 269 268 266 265 265 269 273 275 278 279
169 179 179 157 157 160 166 175 175 174 166 171 170 187 195 194 192 173 179 183 198 207 227 249 257 255 255 258 264 271 277 277 269 266 265 267 266 267 268 276 279 276
167 184 182 176 157 163 178 182 170 174 169 167 166 189 190 196 186 174 175 178 193 206 221 245 259 266 264 264 266 273 281 277 267 266 265 264 266 270 272 274 272 276
187 191 189 186 181 191 188 176 156 156 167 166 172 185 193 189 172 164 175 181 191 207 217 231 255 268 271 270 266 270 270 264 266 267 271 268 275 273 272 271 271 275
189 192 192 190 194 198 190 186 179 174 153 156 180 185 183 165 167 163 170 191 200 210 229 234 251 267 268 265 260 260 259 257 258 265 267 268 273 277 276 273 278 281
193 193 197 194 198 195 186 183 140 143 155 163 170 179 177 172 158 174 168 204 202 207 221 231 238 251 251 250 245 247 246 241 248 252 259 268 271 274 279 278 276 278